Location: Sternwarte ZA, Rosenfeld-Brittheim
(48.2889°N, 8.6789°E)
Time: 05:01:07
(UTC+02:00)

ISS - Pass Details

Date: 01 April 2020
Orbit: 417 x 423 km, 51.6° (Epoch: 29 March)

Event Time Altitude Azimuth Distance (km) Brightness Sun altitude
Rises 20:57:08 0° 292° (WNW) 2,362 2.4 -10.6°
Reaches altitude 10° 20:59:14 10° 292° (WNW) 1,497 0.7 -11.0°
Maximum altitude 21:02:36 88° 203° (SSW) 423 -3.8 -11.5°
Enters shadow 21:04:47 20° 114° (ESE) 1,027 -2.4 -11.8°
